Location: Berlise
(49.6641°N, 4.1077°E)
Time: 20:09:11
(UTC+00:00)

In-Cosmos 22 Rocket - Pass Details

Date: 27 January 2021
Orbit: 789 x 889 km, 81.2° (Epoch: 27 February)

Event Time Altitude Azimuth Distance (km) Brightness Sun altitude
Rises 06:20:33 0° 344° (NNW) 3,383 7.0 -10.1°
Reaches altitude 10° 06:23:01 10° 341° (NNW) 2,431 6.3 -9.7°
Maximum altitude 06:28:22 56° 265° (W) 958 4.2 -8.9°
Drops below altitude 10° 06:33:34 10° 188° (S) 2,363 6.7 -8.1°
Sets 06:35:56 0° 184° (S) 3,281 7.5 -7.7°
